ADR747 CYYC-CYVR

Flight info

Callsign ADR747
Flight time 1h 4m
Altitude 34000
Route BOTAG Q894 BOOTH
Aircraft A320/M-DGV/A

Departure

Time 2026-05-06 18:57
Airport Calgary International Airport (CYYC)

Arrival

Time 2026-05-06 20:01
Airport Vancouver International Airport (CYVR)
Time Latitude Longitude Altitude Speed Heading
2026-05-06 18:47 51.13234 -114.01510 3568 ft 0 kts 27°
2026-05-06 18:51 51.13232 -114.01512 3568 ft 2 kts 27°
2026-05-06 18:51 51.13218 -114.01522 3557 ft 2 kts 27°
2026-05-06 18:51 51.13205 -114.01533 3557 ft 2 kts 27°
2026-05-06 18:51 51.13193 -114.01542 3557 ft 2 kts 27°
2026-05-06 18:52 51.13187 -114.01547 3565 ft 0 kts 27°
2026-05-06 18:53 51.13184 -114.01551 3557 ft 2 kts 18°
2026-05-06 18:53 51.13171 -114.01555 3563 ft 2 kts 349°
2026-05-06 18:53 51.13157 -114.01547 3561 ft 2 kts 317°
2026-05-06 18:53 51.13147 -114.01527 3559 ft 2 kts 282°
2026-05-06 18:54 51.13146 -114.01517 3559 ft 0 kts 268°
2026-05-06 18:54 51.13146 -114.01524 3558 ft 4 kts 267°
2026-05-06 18:54 51.13143 -114.01545 3558 ft 3 kts 256°
2026-05-06 18:55 51.13118 -114.01617 3567 ft 9 kts 231°
2026-05-06 18:55 51.13109 -114.01634 3561 ft 0 kts 229°
2026-05-06 18:55 51.13107 -114.01638 3563 ft 5 kts 229°
2026-05-06 18:55 51.13096 -114.01771 3560 ft 13 kts 270°
2026-05-06 18:56 51.13097 -114.01912 3564 ft 13 kts 270°
2026-05-06 18:56 51.13092 -114.02048 3564 ft 10 kts 241°
2026-05-06 18:56 51.13040 -114.02116 3562 ft 12 kts 197°
2026-05-06 18:56 51.12826 -114.02134 3563 ft 60 kts 179°
2026-05-06 18:57 51.12214 -114.02136 3562 ft 115 kts 180°
2026-05-06 18:57 51.11245 -114.02135 3571 ft 161 kts 180°
2026-05-06 18:57 51.10132 -114.02128 4204 ft 158 kts 180°
2026-05-06 18:57 51.09016 -114.02119 4923 ft 164 kts 178°
2026-05-06 18:58 51.07846 -114.02176 5454 ft 175 kts 194°
2026-05-06 18:58 51.06856 -114.03267 5855 ft 180 kts 243°
2026-05-06 18:58 51.06533 -114.05208 6271 ft 189 kts 272°
2026-05-06 18:58 51.06575 -114.07391 6583 ft 208 kts 274°
2026-05-06 18:59 51.06630 -114.09792 6966 ft 233 kts 274°
2026-05-06 18:59 51.06684 -114.12502 7489 ft 258 kts 274°
2026-05-06 18:59 51.06732 -114.15456 8152 ft 275 kts 273°
2026-05-06 18:59 51.06769 -114.18528 9088 ft 279 kts 273°
2026-05-06 19:00 51.06797 -114.21605 10157 ft 278 kts 274°
2026-05-06 19:00 51.06822 -114.24718 10909 ft 288 kts 274°
2026-05-06 19:00 51.06848 -114.27988 11477 ft 304 kts 274°
2026-05-06 19:00 51.06864 -114.30251 11817 ft 315 kts 274°
2026-05-06 19:01 51.06898 -114.35055 12438 ft 341 kts 273°
2026-05-06 19:01 51.06923 -114.38907 12912 ft 357 kts 273°
2026-05-06 19:01 51.06946 -114.42907 13613 ft 365 kts 274°
2026-05-06 19:01 51.06966 -114.46957 14331 ft 367 kts 274°
2026-05-06 19:02 51.06984 -114.51015 15081 ft 369 kts 274°
2026-05-06 19:02 51.07001 -114.55112 15812 ft 371 kts 274°
2026-05-06 19:02 51.06988 -114.59239 16512 ft 375 kts 270°
2026-05-06 19:02 51.06646 -114.63321 17177 ft 382 kts 261°
2026-05-06 19:03 51.06008 -114.67447 17826 ft 386 kts 260°
2026-05-06 19:03 51.05349 -114.71610 18417 ft 390 kts 260°
2026-05-06 19:03 51.04684 -114.75789 18969 ft 392 kts 260°
2026-05-06 19:03 51.04013 -114.80005 19554 ft 394 kts 260°
2026-05-06 19:04 51.03334 -114.84235 20139 ft 395 kts 260°
2026-05-06 19:04 51.02653 -114.88468 20715 ft 397 kts 260°
2026-05-06 19:04 51.01973 -114.92682 21248 ft 400 kts 259°
2026-05-06 19:04 51.01279 -114.96962 21775 ft 402 kts 259°
2026-05-06 19:05 51.00578 -115.01280 22337 ft 404 kts 259°
2026-05-06 19:05 50.99874 -115.05615 22897 ft 405 kts 259°
2026-05-06 19:05 50.99167 -115.09949 23446 ft 408 kts 259°
2026-05-06 19:05 50.98450 -115.14323 23907 ft 410 kts 259°
2026-05-06 19:06 50.97729 -115.18713 24324 ft 411 kts 259°
2026-05-06 19:06 50.97005 -115.23109 24696 ft 414 kts 259°
2026-05-06 19:06 50.96283 -115.27485 25070 ft 416 kts 259°
2026-05-06 19:06 50.95536 -115.31987 25449 ft 418 kts 259°
2026-05-06 19:07 50.94803 -115.36398 25791 ft 419 kts 259°
2026-05-06 19:07 50.94057 -115.40881 26097 ft 421 kts 259°
2026-05-06 19:07 50.93310 -115.45367 26381 ft 422 kts 259°
2026-05-06 19:07 50.92556 -115.49882 26640 ft 424 kts 259°
2026-05-06 19:08 50.91801 -115.54397 26880 ft 426 kts 258°
2026-05-06 19:08 50.91040 -115.58945 27104 ft 427 kts 258°
2026-05-06 19:08 50.90284 -115.63444 27336 ft 428 kts 258°
2026-05-06 19:08 50.89503 -115.68057 27547 ft 430 kts 258°
2026-05-06 19:09 50.88732 -115.72573 27742 ft 430 kts 258°
2026-05-06 19:09 50.87953 -115.77141 27975 ft 430 kts 258°
2026-05-06 19:09 50.87175 -115.81717 28250 ft 429 kts 258°
2026-05-06 19:09 50.86400 -115.86271 28565 ft 429 kts 258°
2026-05-06 19:10 50.85623 -115.90825 28914 ft 427 kts 258°
2026-05-06 19:10 50.84850 -115.95354 29256 ft 425 kts 258°
2026-05-06 19:10 50.84077 -115.99869 29607 ft 424 kts 258°
2026-05-06 19:10 50.83315 -116.04299 29971 ft 423 kts 258°
2026-05-06 19:11 50.82540 -116.08785 30322 ft 421 kts 258°
2026-05-06 19:11 50.81767 -116.13238 30637 ft 420 kts 258°
2026-05-06 19:11 50.80992 -116.17688 30987 ft 418 kts 258°
2026-05-06 19:11 50.80219 -116.22118 31310 ft 417 kts 258°
2026-05-06 19:12 50.79451 -116.26517 31660 ft 415 kts 257°
2026-05-06 19:12 50.78681 -116.30910 32013 ft 413 kts 257°
2026-05-06 19:12 50.77913 -116.35271 32371 ft 412 kts 257°
2026-05-06 19:12 50.77151 -116.39572 32728 ft 411 kts 257°
2026-05-06 19:13 50.76386 -116.43896 33101 ft 409 kts 257°
2026-05-06 19:13 50.75614 -116.48211 33476 ft 407 kts 256°
2026-05-06 19:13 50.74814 -116.52502 33843 ft 406 kts 256°
2026-05-06 19:13 50.73996 -116.56765 34041 ft 406 kts 256°
2026-05-06 19:14 50.73166 -116.61017 34100 ft 404 kts 256°
2026-05-06 19:14 50.71521 -116.69373 34053 ft 399 kts 255°
2026-05-06 19:15 50.69885 -116.77798 33992 ft 404 kts 255°
2026-05-06 19:15 50.68221 -116.86213 33998 ft 403 kts 255°
2026-05-06 19:16 50.66546 -116.94648 34013 ft 402 kts 255°
2026-05-06 19:16 50.64890 -117.03029 34016 ft 403 kts 255°
2026-05-06 19:17 50.63228 -117.11432 34011 ft 403 kts 255°
2026-05-06 19:17 50.61548 -117.19827 34008 ft 401 kts 255°
2026-05-06 19:18 50.59866 -117.28213 34000 ft 401 kts 255°
2026-05-06 19:18 50.58187 -117.36570 34005 ft 401 kts 255°
2026-05-06 19:19 50.56511 -117.44870 34004 ft 400 kts 255°
2026-05-06 19:19 50.54821 -117.53212 33998 ft 400 kts 255°
2026-05-06 19:20 50.53121 -117.61536 34002 ft 399 kts 255°
2026-05-06 19:20 50.51424 -117.69844 33999 ft 400 kts 255°
2026-05-06 19:21 50.49730 -117.78086 33992 ft 399 kts 255°
2026-05-06 19:21 50.48023 -117.86360 33986 ft 398 kts 255°
2026-05-06 19:22 50.46310 -117.94623 33978 ft 398 kts 255°
2026-05-06 19:22 50.44598 -118.02857 33991 ft 397 kts 255°
2026-05-06 19:23 50.42889 -118.11043 33981 ft 397 kts 255°
2026-05-06 19:23 50.41158 -118.19251 33994 ft 396 kts 255°
2026-05-06 19:24 50.39431 -118.27444 33993 ft 395 kts 255°
2026-05-06 19:24 50.37707 -118.35628 33987 ft 395 kts 255°
2026-05-06 19:25 50.35984 -118.43741 33983 ft 395 kts 255°
2026-05-06 19:25 50.34243 -118.51902 33980 ft 395 kts 255°
2026-05-06 19:26 50.32503 -118.60028 33975 ft 394 kts 256°
2026-05-06 19:26 50.30758 -118.68140 33972 ft 393 kts 256°
2026-05-06 19:27 50.29022 -118.76176 33969 ft 392 kts 256°
2026-05-06 19:27 50.27270 -118.84261 33965 ft 391 kts 256°
2026-05-06 19:28 50.25519 -118.92313 33956 ft 391 kts 256°
2026-05-06 19:28 50.23767 -119.00350 33951 ft 391 kts 256°
2026-05-06 19:29 50.22027 -119.08302 33941 ft 390 kts 256°
2026-05-06 19:29 50.20266 -119.16297 33931 ft 389 kts 256°
2026-05-06 19:30 50.18500 -119.24299 33931 ft 389 kts 256°
2026-05-06 19:30 50.16740 -119.32241 33928 ft 388 kts 256°
2026-05-06 19:31 50.14984 -119.40125 33932 ft 386 kts 256°
2026-05-06 19:31 50.12323 -119.51996 33925 ft 387 kts 256°
2026-05-06 19:32 50.10543 -119.59907 33926 ft 386 kts 256°
2026-05-06 19:32 50.08767 -119.67770 33928 ft 386 kts 256°
2026-05-06 19:33 50.07003 -119.75590 33928 ft 385 kts 256°
2026-05-06 19:33 50.05218 -119.83450 33931 ft 385 kts 256°
2026-05-06 19:34 50.03420 -119.91311 33936 ft 386 kts 256°
2026-05-06 19:34 50.01628 -119.99162 33944 ft 385 kts 256°
2026-05-06 19:35 49.99847 -120.06961 33947 ft 386 kts 256°
2026-05-06 19:35 49.98039 -120.14813 33946 ft 386 kts 256°
2026-05-06 19:36 49.96218 -120.22658 33952 ft 386 kts 256°
2026-05-06 19:36 49.94390 -120.30506 33961 ft 386 kts 256°
2026-05-06 19:37 49.92575 -120.38295 33960 ft 387 kts 256°
2026-05-06 19:37 49.91044 -120.44825 33962 ft 388 kts 255°
2026-05-06 19:38 49.88888 -120.54010 33974 ft 387 kts 255°
2026-05-06 19:38 49.87036 -120.61867 33973 ft 388 kts 255°
2026-05-06 19:39 49.85187 -120.69669 33969 ft 389 kts 255°
2026-05-06 19:39 49.84264 -120.73553 33781 ft 377 kts 255°
2026-05-06 19:39 49.83361 -120.77331 33020 ft 373 kts 255°
2026-05-06 19:40 49.82458 -120.81135 31823 ft 380 kts 255°
2026-05-06 19:40 49.81541 -120.85017 30679 ft 387 kts 255°
2026-05-06 19:40 49.80600 -120.88982 30204 ft 397 kts 255°
2026-05-06 19:40 49.79638 -120.93019 29906 ft 402 kts 254°
2026-05-06 19:41 49.78681 -120.97003 29385 ft 398 kts 254°
2026-05-06 19:41 49.77714 -121.00997 28831 ft 395 kts 254°
2026-05-06 19:41 49.76754 -121.04964 28298 ft 393 kts 254°
2026-05-06 19:41 49.75801 -121.08906 27787 ft 390 kts 253°
2026-05-06 19:42 49.74855 -121.12825 27266 ft 388 kts 253°
2026-05-06 19:42 49.73919 -121.16710 26756 ft 385 kts 253°
2026-05-06 19:42 49.72985 -121.20582 26239 ft 383 kts 253°
2026-05-06 19:42 49.72057 -121.24420 25737 ft 381 kts 253°
2026-05-06 19:43 49.71140 -121.28194 25226 ft 379 kts 253°
2026-05-06 19:43 49.70212 -121.31999 24733 ft 378 kts 252°
2026-05-06 19:43 49.69289 -121.35776 24223 ft 375 kts 252°
2026-05-06 19:43 49.68367 -121.39535 23732 ft 373 kts 252°
2026-05-06 19:44 49.67451 -121.43262 23166 ft 370 kts 252°
2026-05-06 19:44 49.66539 -121.46970 22665 ft 369 kts 252°
2026-05-06 19:44 49.65629 -121.50675 22177 ft 367 kts 252°
2026-05-06 19:44 49.64728 -121.54338 21699 ft 365 kts 252°
2026-05-06 19:45 49.63838 -121.57948 21212 ft 364 kts 252°
2026-05-06 19:45 49.62943 -121.61571 20723 ft 361 kts 251°
2026-05-06 19:45 49.62050 -121.65187 20237 ft 359 kts 251°
2026-05-06 19:45 49.61160 -121.68780 19750 ft 357 kts 251°
2026-05-06 19:46 49.60275 -121.72344 19282 ft 356 kts 251°
2026-05-06 19:46 49.59387 -121.75899 18799 ft 354 kts 251°
2026-05-06 19:46 49.58508 -121.79426 18311 ft 352 kts 251°
2026-05-06 19:46 49.57634 -121.82946 17798 ft 350 kts 251°
2026-05-06 19:47 49.56778 -121.86399 17330 ft 348 kts 251°
2026-05-06 19:47 49.55916 -121.89863 16878 ft 346 kts 251°
2026-05-06 19:47 49.55052 -121.93321 16334 ft 345 kts 251°
2026-05-06 19:47 49.54192 -121.96735 15787 ft 341 kts 250°
2026-05-06 19:48 49.53329 -122.00154 15333 ft 340 kts 250°
2026-05-06 19:48 49.52469 -122.03524 14891 ft 337 kts 249°
2026-05-06 19:48 49.51355 -122.06704 14434 ft 339 kts 241°
2026-05-06 19:48 49.50126 -122.09767 13983 ft 336 kts 240°
2026-05-06 19:49 49.48912 -122.12785 13491 ft 335 kts 240°
2026-05-06 19:49 49.47694 -122.15817 13041 ft 333 kts 240°
2026-05-06 19:49 49.46481 -122.18837 12607 ft 331 kts 241°
2026-05-06 19:49 49.45295 -122.21812 12305 ft 319 kts 241°
2026-05-06 19:50 49.44168 -122.24651 12088 ft 305 kts 241°
2026-05-06 19:50 49.43086 -122.27378 11863 ft 293 kts 241°
2026-05-06 19:50 49.42046 -122.29993 11646 ft 282 kts 241°
2026-05-06 19:50 49.41043 -122.32512 11426 ft 271 kts 241°
2026-05-06 19:51 49.40052 -122.34890 11195 ft 265 kts 235°
2026-05-06 19:51 49.38865 -122.37013 10976 ft 259 kts 232°
2026-05-06 19:51 49.37682 -122.39073 10735 ft 255 kts 232°
2026-05-06 19:51 49.36515 -122.41096 10501 ft 253 kts 232°
2026-05-06 19:52 49.35348 -122.43112 10265 ft 253 kts 232°
2026-05-06 19:52 49.34183 -122.45126 10021 ft 251 kts 232°
2026-05-06 19:52 49.33023 -122.47134 9801 ft 251 kts 231°
2026-05-06 19:52 49.31867 -122.49114 9521 ft 250 kts 231°
2026-05-06 19:53 49.30705 -122.51081 9189 ft 249 kts 231°
2026-05-06 19:53 49.29554 -122.53022 8869 ft 249 kts 231°
2026-05-06 19:53 49.28379 -122.55002 8545 ft 248 kts 230°
2026-05-06 19:53 49.27241 -122.56934 8238 ft 247 kts 231°
2026-05-06 19:54 49.26094 -122.58886 7925 ft 246 kts 230°
2026-05-06 19:54 49.24954 -122.60825 7607 ft 245 kts 230°
2026-05-06 19:54 49.23813 -122.62766 7303 ft 245 kts 230°
2026-05-06 19:54 49.22678 -122.64698 6991 ft 245 kts 230°
2026-05-06 19:55 49.21540 -122.66639 6685 ft 245 kts 230°
2026-05-06 19:55 49.20445 -122.68626 6345 ft 244 kts 234°
2026-05-06 19:55 49.19441 -122.70678 6030 ft 244 kts 234°
2026-05-06 19:55 49.18431 -122.72744 5715 ft 243 kts 234°
2026-05-06 19:56 49.17418 -122.74819 5409 ft 243 kts 233°
2026-05-06 19:56 49.16409 -122.76881 5105 ft 242 kts 233°
2026-05-06 19:56 49.15424 -122.78960 4781 ft 243 kts 239°
2026-05-06 19:56 49.14804 -122.81353 4447 ft 245 kts 258°
2026-05-06 19:57 49.14715 -122.83071 4288 ft 244 kts 271°
2026-05-06 19:57 49.15028 -122.86478 3952 ft 242 kts 279°
2026-05-06 19:57 49.15342 -122.89014 3625 ft 246 kts 278°
2026-05-06 19:57 49.15649 -122.91597 3262 ft 246 kts 278°
2026-05-06 19:58 49.15942 -122.94118 2940 ft 242 kts 278°
2026-05-06 19:58 49.16232 -122.96611 2632 ft 233 kts 278°
2026-05-06 19:58 49.16509 -122.98993 2329 ft 220 kts 278°
2026-05-06 19:58 49.16766 -123.01208 2056 ft 204 kts 277°
2026-05-06 19:59 49.17004 -123.03268 1779 ft 191 kts 277°
2026-05-06 19:59 49.17229 -123.05225 1504 ft 183 kts 277°
2026-05-06 19:59 49.17444 -123.07090 1285 ft 171 kts 278°
2026-05-06 19:59 49.17638 -123.08772 1060 ft 155 kts 277°
2026-05-06 20:00 49.17818 -123.10350 810 ft 148 kts 278°
2026-05-06 20:00 49.17991 -123.11858 587 ft 141 kts 278°
2026-05-06 20:00 49.18160 -123.13342 409 ft 143 kts 279°
2026-05-06 20:00 49.18331 -123.14831 231 ft 141 kts 279°
2026-05-06 20:01 49.18499 -123.16314 53 ft 141 kts 280°
2026-05-06 20:01 49.18656 -123.17684 21 ft 114 kts 281°
2026-05-06 20:01 49.18756 -123.18192 19 ft 25 kts 321°
2026-05-06 20:01 49.18874 -123.18347 18 ft 12 kts 319°
2026-05-06 20:02 49.18920 -123.18404 18 ft 7 kts 321°
2026-05-06 20:02 49.18993 -123.18491 18 ft 19 kts 323°
2026-05-06 20:02 49.19102 -123.18611 18 ft 14 kts 349°
2026-05-06 20:02 49.19167 -123.18533 18 ft 14 kts 59°
2026-05-06 20:03 49.19194 -123.18443 18 ft 0 kts 66°